Orbital Elements at Epoch 2459200.5 (2020-Dec-17.0) TDB
Reference: JPL 24 (heliocentric ecliptic J2000)
Element | Value | Uncertainty (1-sigma) | Units |
e | .07510536528643305 | 3.6215e-08 | |
a | 2.876498248937244 | 1.5001e-08 | au |
q | 2.660457797205027 | 1.0282e-07 | au |
i | .7950611966721282 | 4.2006e-06 | deg |
node | 294.4346871201541 | 0.00036918 | deg |
peri | 145.7572012912783 | 0.00037101 | deg |
M | 150.6477262794782 | 3.7417e-05 | deg |
tp | 2458454.816251140293 (2018-Dec-02.31625114) | 0.00018328 | TDB |
period | 1781.946241203 4.88 | 1.394e-05 3.817e-08 | d yr |
n | .2020262966838788 | 1.5804e-09 | deg/d |
Q | 3.092538700669461 | 1.6128e-08 | au |
|
| | Orbit Determination Parameters
Additional Information
|